q   3.8863328            (2000.0)            P               Q

z  -0.0008692      Peri.  261.49352     +0.02631759     +0.97967020

 +/-0.0000020      Node   344.79641     +0.90469495     -0.10797358

e   1.0033781      Incl.  130.67968     -0.42524631     -0.16907987

From 185 observations 2005 Mar. 3-2006 Dec. 27, mean residual 0".58.

   (1/a)org.= +0.000032, (1/a)fut.= -0.000049 (+/-0.000002), Q= 8.



NAKANO

         **** Don't distribute anyone except personal use only ****

                (C) Copyright 2007 OAA/ComputingSection

write mail from CFAD0::NAKANO on 2007-01-11 23:59:04(JST).

 



    C/2005 EL173 (LONEOS)

Epoch 2007 Mar. 1.0 TT = JDT 2454160.5  

T 2007 Mar. 5.87000 TT                                  Nakano

q   3.8863530            (2000.0)            P               Q

z  -0.0008708      Peri.  261.49314     +0.02631088     +0.97967053

 +/-0.0000022      Node   344.79645     +0.90469634     -0.10796682

e   1.0033843      Incl.  130.67977     -0.42524377     -0.16908230

From 159 observations 2005 Mar. 3-2006 Oct. 25, mean residual 0".55.

   (1/a)org.= +0.000030, (1/a)fut.= -0.000051 (+/-0.000002), Q= 7.



NAKANO

         **** Don't distribute anyone except personal use only ****

                (C) Copyright 2006 OAA/ComputingSection

write mail from CFAD0::NAKANO on 2006-11-04 04:16:10(JST).

 



◎C/2005 EL173の軌道と予報位置です



 2006年5月8日以来の観測が土佐の下元繁男氏と上尾の門田健一氏によって,

10月25日に行なわれました.両氏の光度は,それぞれ,15.9等(CCD全光度;

門田)と16.5等(核光度;下元)でした.



    C/2005 EL173 (LONEOS)

Epoch 2007 Mar. 1.0 TT = JDT 2454160.5  

T 2007 Mar. 5.87032 TT                                  Nakano

q   3.8863547            (2000.0)            P               Q

z  -0.0008702      Peri.  261.49314     +0.02631085     +0.97967055

 +/-0.0000023      Node   344.79645     +0.90469646     -0.10796669

e   1.0033820      Incl.  130.67979     -0.42524352     -0.16908223

From 157 observations 2005 Mar. 3-2006 Oct. 25, mean residual 0".56.

   (1/a)org.= +0.000031, (1/a)fut.= -0.000050 (+/-0.000002), Q= 7.

 

Date/        TT  R.A.(2000) Decl.     Delta   r     Daily motion  Mag.  Moon Age

              h    h  m       。  ,                      ,  / PA 。  m1      。

2006 Oct. 25 19  08 28.30  -21 41.7   4.121  4.051    16.0 / 210  15.2  106  .12

          26 19  08 27.72  -21 55.5   4.103  4.048    16.2 / 211  15.1  115  .19

          27 19  08 27.13  -22 09.4   4.085  4.046    16.4 / 212  15.1  123  .28

          28 19  08 26.50  -22 23.4   4.068  4.043    16.7 / 213  15.1  130  .38

          29 19  08 25.86  -22 37.5   4.050  4.041    16.9 / 213  15.1  134  .49

          30 19  08 25.18  -22 51.6   4.032  4.039    17.1 / 214  15.1  136  .60

          31 19  08 24.48  -23 05.7   4.015  4.036    17.4 / 215  15.1  134  .71

     Nov.  1 19  08 23.76  -23 19.9   3.997  4.034    17.6 / 216  15.1  129  .81

           2 19  08 23.01  -23 34.2   3.980  4.032    17.9 / 217  15.1  122  .89

           3 19  08 22.23  -23 48.5   3.963  4.029    18.1 / 218  15.0  112  .96

           4 19  08 21.42  -24 02.9   3.945  4.027    18.4 / 218  15.0  102  .99

           5 19  08 20.58  -24 17.3   3.928  4.025    18.6 / 219  15.0   92 1.00

           6 19  08 19.72  -24 31.7   3.911  4.023    18.9 / 220  15.0   82  .98

           7 19  08 18.83  -24 46.2   3.894  4.020    19.2 / 221  15.0   72  .93

           8 19  08 17.90  -25 00.6   3.877  4.018    19.4 / 222  15.0   63  .86

           9 19  08 16.95  -25 15.1   3.860  4.016    19.7 / 223  15.0   56  .78

          10 19  08 15.96  -25 29.7   3.843  4.014    20.0 / 223  15.0   51  .69

          11 19  08 14.95  -25 44.2   3.827  4.012    20.3 / 224  14.9   48  .59

          12 19  08 13.90  -25 58.7   3.810  4.009    20.5 / 225  14.9   48  .50

          13 19  08 12.82  -26 13.3   3.794  4.007    20.8 / 226  14.9   50  .40

          14 19  08 11.71  -26 27.8   3.778  4.005    21.1 / 227  14.9   53  .31

          15 19  08 10.57  -26 42.3   3.762  4.003    21.4 / 227  14.9   59  .23

          16 19  08 09.39  -26 56.7   3.746  4.001    21.7 / 228  14.9   65  .15

          17 19  08 08.18  -27 11.2   3.730  3.999    22.0 / 229  14.9   73  .09

          18 19  08 06.94  -27 25.6   3.714  3.997    22.2 / 230  14.9   80  .04

          19 19  08 05.66  -27 39.9   3.699  3.995    22.5 / 231  14.9   88  .01

          20 19  08 04.35  -27 54.2   3.684  3.993    22.8 / 231  14.8   97  .00

          21 19  08 03.00  -28 08.4   3.669  3.991    23.1 / 232  14.8  104  .01

          22 19  08 01.62  -28 22.6   3.654  3.989    23.4 / 233  14.8  112  .04

          23 19  08 00.20  -28 36.6   3.640  3.987    23.7 / 234  14.8  119  .09

          24 19  07 58.75  -28 50.6   3.625  3.985    24.0 / 235  14.8  124  .15

          25 19  07 57.26  -29 04.5   3.611  3.983    24.2 / 235  14.8  127  .24

          26 19  07 55.73  -29 18.2   3.598  3.981    24.5 / 236  14.8  128  .34

          27 19  07 54.17  -29 31.8   3.584  3.979    24.8 / 237  14.8  126  .45

          28 19  07 52.58  -29 45.3   3.571  3.978    25.1 / 238  14.8  122  .56

          29 19  07 50.95  -29 58.7   3.558  3.976    25.3 / 239  14.7  116  .67

          30 19  07 49.28  -30 11.8   3.545  3.974    25.6 / 239  14.7  108  .77

     Dec.  1 19  07 47.58  -30 24.9   3.532  3.972    25.9 / 240  14.7  100  .86

NAKANO

         **** Don't distribute anyone except personal use only ****

                (C) Copyright 2006 OAA/ComputingSection

write mail from CFAD0::NAKANO on 2006-10-27 06:03:29(JST).

 



    C/2005 EL173 (LONEOS)

Epoch 2007 Mar. 1.0 TT = JDT 2454160.5  

T 2007 Mar. 5.88106 TT                                  Nakano

q   3.8863739            (2000.0)            P               Q

z  -0.0008535      Peri.  261.49360     +0.02631939     +0.97967073

 +/-0.0000070      Node   344.79652     +0.90469833     -0.10797262

e   1.0033171      Incl.  130.68017     -0.42523901     -0.16907741

From 64 observations 2005 Mar. 3-2006 Jan. 23, mean residual 0".49.

   (1/a)org.= +0.000048, (1/a)fut.= -0.000033 (+/-0.000007), Q= 7.



NAKANO

         **** Don't distribute anyone except personal use only ****

                (C) Copyright 2006 OAA/ComputingSection

write mail from CFAD0::NAKANO on 2006-02-06 06:49:21(JST).

 



◎C/2005 EL173の軌道と予報位置です    [From YC 2502]



LONEOS彗星  C/2005 EL173 (LONEOS)

  2005年5月で止まっていたこの彗星の観測が2005年12月に再開された.2006年

1月のCCD全光度は17等級と報告されている.NK 1257(= HICQ 2006)にある軌道

からのずれは約60"であった(cf. YC 2469).OAA計算課では,2005年3月3日か

ら2006年1月10日までに行なわれた60個の観測を使用して次の軌道を計算した.

平均残差は0".55.



            Epoch = 2007 Mar. 1.0 TT    。

  T = 2007 Mar. 5.88783 TT    ω = 261.49305               (1/a)org.= +0.000056

  e =   1.0032857             Ω = 344.79653   (2000.0)    (1/a)fut.= -0.000025

  q =   3.8864382 AU          i = 130.68017                          ( Q = 7 )





    C/2005 EL173 (LONEOS)

Epoch 2007 Mar. 1.0 TT = JDT 2454160.5  

T 2007 Mar. 5.88783 TT                                  Nakano

q   3.8864382            (2000.0)            P               Q

z  -0.0008454      Peri.  261.49305     +0.02630973     +0.97967102

 +/-0.0000086      Node   344.79653     +0.90469933     -0.10796366

e   1.0032857      Incl.  130.68017     -0.42523750     -0.16908145

From 60 observations 2005 Mar. 3-2006 Jan. 10, mean residual 0".55.

   (1/a)org.= +0.000056, (1/a)fut.= -0.000025 (+/-0.000009), Q= 7.

NAKANO

         **** Don't distribute anyone except personal use only ****

                (C) Copyright 2006 OAA/ComputingSection

write mail from CFAD0::NAKANO on 2006-01-18 23:44:07(JST).

 





    C/2005 EL173 (LONEOS)

Epoch 2007 Mar. 1.0 TT = JDT 2454160.5  

T 2007 Mar. 6.06730 TT                                  Nakano

q   3.8934527            (2000.0)            P               Q

z  -0.0007863      Peri.  261.39463     +0.02472136     +0.97972162

 +/-0.0000535      Node   344.79493     +0.90504010     -0.10641090

e   1.0030615      Incl.  130.70229     -0.42460720     -0.16977120

From 43 observations 2005 Mar. 3-May 13, mean residual 0".43.

   (1/a)org.= +0.000114, (1/a)fut.= +0.000033 (+/-0.000054), Q= 5.



NAKANO

         **** Don't distribute anyone except personal use only ****

                (C) Copyright 2005 OAA/ComputingSection

write mail from CFAD0::NAKANO on 2005-11-03 23:39:18(JST).

 



    C/2005 EL173 (LONEOS)                                                 

Epoch 2007 Mar. 1.0 TT = JDT 2454160.5  

T 2007 Mar. 6.03005 TT                                  Nakano

q   3.8939367            (2000.0)            P               Q

z  -0.0008209      Peri.  261.38467     +0.02456172     +0.97972669

 +/-0.0000752      Node   344.79474     +0.90507643     -0.10625365

e   1.0031964      Incl.  130.70481     -0.42453901     -0.16984045

From 39 observations 2005 Mar. 3-May 4, mean residual 0".44.

   (1/a)org.= +0.000079, (1/a)fut.= -0.000002 (+/-0.000075), Q= 5.



NAKANO

         **** Don't distribute anyone except personal use only ****

                (C) Copyright 2005 OAA/ComputingSection

write mail from CFAD0::NAKANO on 2005-06-05 05:59:11(JST).

 





戻ります。